DW1521 Weather Reports


Display with metric or nautical units.
time (UTC)temp
F
wind
direction
speed
MPH
gust
MPH
rain 1hr
in
rain 24hr
in
rain mn
in
humidity
%
barometer
mb
20170625103113 87 283 2.0 8.0 0.00 0.00 0.00 45 1017.0
20170625102112 86 333 0.0 6.0 0.00 0.00 0.00 45 1017.0
20170625101112 86 27 4.0 8.0 0.00 0.00 0.00 45 1018.0
20170625100113 86 344 3.0 8.0 0.00 0.00 0.00 45 1018.0
20170625095113 85 288 1.0 9.0 0.00 0.00 0.00 47 1018.0
20170625091112 85 292 1.0 6.0 0.00 0.00 0.00 48 1018.0
20170625090114 84 254 1.0 8.0 0.00 0.00 0.00 48 1018.0
20170625085112 83 312 0.0 6.0 0.00 0.00 0.00 50 1018.0
20170625084112 83 25 0.0 3.0 0.00 0.00 0.00 50 1017.0
20170625083113 82 227 5.0 6.0 0.00 0.00 0.00 50 1017.0
20170625082112 82 351 3.0 6.0 0.00 0.00 0.00 51 1017.0
20170625075112 80 306 2.0 6.0 0.00 0.00 0.00 56 1017.0
20170625072112 77 301 0.0 3.0 0.00 0.00 0.00 63 1018.0
20170625071112 75 236 0.0 0.0 0.00 0.00 0.00 64 1017.0
20170625064113 72 254 0.0 0.0 0.00 0.00 0.00 68 1018.0
20170625061113 70 245 1.0 3.0 0.00 0.00 0.00 73 1017.0
20170625060113 69 247 0.0 0.0 0.00 0.00 0.00 75 1017.0
20170625055112 67 247 0.0 0.0 0.00 0.00 0.00 77 1017.0
20170625054113 66 243 0.0 0.0 0.00 0.00 0.00 82 1017.0
20170625053112 65 141 0.0 0.0 0.00 0.00 0.00 86 1017.0
20170625051112 60 141 0.0 0.0 0.00 0.00 0.00 94 1018.0
20170625050112 59 141 0.0 0.0 0.00 0.00 0.00 92 1018.0
20170625045112 58 141 0.0 0.0 0.00 0.00 0.00 92 1018.0
20170625044112 58 141 0.0 0.0 0.00 0.00 0.00 92 1018.0
20170625043113 57 141 0.0 0.0 0.00 0.00 0.00 91 1018.0
20170625041113 56 141 0.0 2.0 0.00 0.00 0.00 90 1018.0
20170625040113 56 141 0.0 0.0 0.00 0.00 0.00 90 1018.0
20170625035113 56 141 0.0 0.0 0.00 0.00 0.00 90 1018.0
20170625034112 56 141 0.0 0.0 0.00 0.00 0.00 89 1018.0
20170625032112 57 141 0.0 0.0 0.00 0.00 0.00 88 1017.0
20170625030112 57 141 0.0 0.0 0.00 0.00 0.00 88 1018.0
20170625025113 57 141 0.0 0.0 0.00 0.00 0.00 88 1018.0
20170625024113 57 141 0.0 0.0 0.00 0.00 0.00 87 1017.0
20170625022113 58 141 0.0 0.0 0.00 0.00 0.00 86 1017.0
20170625021112 58 141 0.0 0.0 0.00 0.00 0.00 86 1017.0
20170625020113 58 141 0.0 0.0 0.00 0.00 0.00 86 1017.0
20170625015112 58 141 0.0 0.0 0.00 0.00 0.00 86 1017.0
20170625014112 58 141 0.0 0.0 0.00 0.00 0.00 86 1017.0
20170625013114 59 141 0.0 0.0 0.00 0.00 0.00 86 1017.2
20170625010113 59 141 0.0 0.0 0.00 0.00 0.00 83 1018.0
20170625005112 59 141 0.0 0.0 0.00 0.00 0.00 83 1018.0
20170625003113 60 140 0.0 0.0 0.00 0.00 0.00 82 1018.0
20170625002113 61 141 0.0 3.0 0.00 0.00 0.00 82 1018.0
20170625001113 61 137 0.0 2.0 0.00 0.00 0.00 82 1018.0
20170625000114 61 45 0.0 0.0 0.00 0.00 0.00 81 1018.0
20170624235113 62 45 0.0 0.0 0.00 0.00 0.00 81 1018.0
20170624234113 62 45 0.0 0.0 0.00 0.00 0.00 80 1018.0
20170624231113 63 45 0.0 0.0 0.00 0.00 0.00 78 1018.0
20170624230112 63 45 0.0 0.0 0.00 0.00 0.00 77 1018.0
20170624225112 63 45 0.0 0.0 0.00 0.00 0.00 77 1018.0
20170624224113 64 45 0.0 0.0 0.00 0.00 0.00 76 1018.0
20170624223112 64 45 0.0 0.0 0.00 0.00 0.00 76 1018.0
20170624222113 64 45 0.0 0.0 0.00 0.00 0.00 75 1018.0
20170624221113 64 45 0.0 0.0 0.00 0.00 0.00 74 1018.0
20170624220113 65 45 0.0 0.0 0.00 0.00 0.00 73 1018.0
20170624214112 65 74 0.0 0.0 0.00 0.00 0.00 71 1018.0
20170624213113 66 74 0.0 0.0 0.00 0.00 0.00 70 1018.0
20170624211109 67 74 0.0 0.0 0.00 0.00 0.00 69 1018.0
20170624210112 67 74 0.0 0.0 0.00 0.00 0.00 68 1017.7
20170624203112 68 74 0.0 0.0 0.00 0.00 0.00 64 1018.0
20170624202113 69 74 0.0 0.0 0.00 0.00 0.00 64 1018.0
20170624190113 74 337 0.0 0.0 0.00 0.00 0.00 54 1017.0
20170624183113 75 1 0.0 3.0 0.00 0.00 0.00 52 1017.0
20170624182113 76 353 0.0 0.0 0.00 0.00 0.00 51 1017.0
20170624180112 77 330 0.0 2.0 0.00 0.00 0.00 50 1017.0
20170624173112 79 305 0.0 2.0 0.00 0.00 0.00 48 1017.0
20170624172113 80 269 0.0 2.0 0.00 0.00 0.00 48 1017.0
20170624170113 82 310 6.0 8.0 0.00 0.00 0.00 47 1016.0
20170624165112 83 325 5.0 9.0 0.00 0.00 0.00 45 1016.0
20170624164113 83 340 8.0 10.0 0.00 0.00 0.00 45 1016.0
20170624163113 84 334 5.0 15.0 0.00 0.00 0.00 45 1016.0
20170624161112 85 12 6.0 15.0 0.00 0.00 0.00 45 1015.0
20170624160113 85 336 9.0 15.0 0.00 0.00 0.00 45 1015.3
20170624154112 86 353 8.0 15.0 0.00 0.00 0.00 45 1016.0
20170624153113 86 349 5.0 15.0 0.00 0.00 0.00 44 1016.0
20170624152113 87 354 9.0 15.0 0.00 0.00 0.00 44 1016.0
20170624150113 87 355 9.0 15.0 0.00 0.00 0.00 44 1016.0
20170624145112 88 2 8.0 14.0 0.00 0.00 0.00 44 1016.0
20170624144113 88 42 7.0 13.0 0.00 0.00 0.00 44 1016.0
20170624143112 88 1 7.0 13.0 0.00 0.00 0.00 44 1015.7
20170624142113 88 326 7.0 13.0 0.00 0.00 0.00 44 1015.0
20170624141112 89 346 6.0 13.0 0.00 0.00 0.00 44 1015.0
20170624135112 89 339 9.0 13.0 0.00 0.00 0.00 44 1016.0
20170624134112 89 0 8.0 13.0 0.00 0.00 0.00 44 1016.0
20170624132113 90 347 7.0 13.0 0.00 0.00 0.00 44 1016.0
20170624130113 90 7 8.0 15.0 0.00 0.00 0.00 44 1016.0
20170624125112 89 317 8.0 15.0 0.00 0.00 0.00 45 1016.0
20170624124112 90 347 6.0 15.0 0.00 0.00 0.00 44 1016.0
20170624122113 90 6 6.0 9.0 0.00 0.00 0.00 44 1016.0
20170624121113 90 348 6.0 12.0 0.00 0.00 0.00 44 1016.0
20170624114112 90 333 8.0 12.0 0.00 0.00 0.00 44 1016.0
20170624113112 89 324 5.0 12.0 0.00 0.00 0.00 45 1016.0
20170624112113 89 280 7.0 10.0 0.00 0.00 0.00 45 1016.0
20170624110113 88 334 7.0 15.0 0.00 0.00 0.00 45 1016.0
20170624105112 88 322 7.0 12.0 0.00 0.00 0.00 46 1016.0
20170624104112 88 324 6.0 13.0 0.00 0.00 0.00 47 1017.0